Вернуться в каталог

STARLINK-3809

АктивенСвязьVLEO
NORAD 52851·PAYLOAD·🇺🇸 United States

Запущен Jun 17, 2022 с Cape Canaveral Space Force Station

Loading…

Ближайшие Пролёты (ближайшие 24 часа)

TLE

СвежийSource: CelesTrak SupGP

Эпоха: Sep 14, 2026, 21:22 UTC

1 52851C 22062X   26257.89076389  .00035165  00000+0  10389-2 0  2574
2 52851  53.1565 239.8561 0001423  97.8328  61.8688 15.34374754    10

Отслеживайте STARLINK-3809 в реальном времени с AllMySat

Download on the App Store